Koosah.INFO

KSEA Weather Observatons

This table shows observations taken by aircraft in the Seattle, WA, US area since 2019-06-19T08:30:50-0700. By default, it is sorted by time observed in ascending order. Click on a column heading to sort by that column instead. Click again on the same column heading to sort in descending order.

Show observations taken in the last:

Return to main page.

Time Observed Time Received Altitude (ft) Latitude Longitude Temperature (˚C) Wind Direction Wind speed (kn) Frequency (MHz) Source
2019-06-19T09:53:00-0700 2019-06-19T09:54:52-0700 8332 47.3083 -122.497 -1.0 (missing) (missing) 130.025 .N612AS
2019-06-19T09:55:00-0700 2019-06-19T09:56:34-0700 12198 47.3143 -122.7052 -8.0 (missing) (missing) 130.025 .N612AS
2019-06-19T08:39:00-0700 2019-06-19T08:39:58-0700 1417 47.4159 -122.3082 7.0 (missing) (missing) 130.025 .N317AS
2019-06-19T10:12:00-0700 2019-06-19T10:13:02-0700 4300 47.667 -122.316 4.0 48 4 130.025 .N820DN
2019-06-19T10:11:00-0700 2019-06-19T10:13:02-0700 4700 47.715 -122.316 2.0 51 4 130.025 .N820DN
2019-06-19T10:23:00-0700 2019-06-19T10:26:41-0700 3724 47.7294 -122.3861 3.7 57 4 130.025 .N524AS
2019-06-19T10:24:00-0700 2019-06-19T10:26:41-0700 3711 47.6907 -122.3401 3.2 106 5 130.025 .N524AS
2019-06-19T10:25:00-0700 2019-06-19T10:26:41-0700 3664 47.6449 -122.3176 3.5 115 6 130.025 .N524AS
2019-06-19T08:39:00-0700 2019-06-19T08:39:58-0700 1240 47.4207 -122.3082 8.0 118 5 130.025 .N317AS
2019-06-19T08:38:00-0700 2019-06-19T08:39:58-0700 1002 47.4254 -122.308 9.2 151 2 130.025 .N317AS
2019-06-19T08:37:00-0700 2019-06-19T08:40:40-0700 1700 47.249 -122.185 7.0 162 5 130.025 .N585NW
2019-06-19T08:39:00-0700 2019-06-19T08:40:05-0700 1779 47.4005 -122.308 6.2 162 2 130.025 .N317AS
2019-06-19T08:39:00-0700 2019-06-19T08:40:05-0700 1670 47.4058 -122.308 6.5 163 5 130.025 .N317AS
2019-06-19T08:38:00-0700 2019-06-19T08:40:40-0700 3200 47.213 -122.185 4.0 165 5 130.025 .N585NW
2019-06-19T08:39:00-0700 2019-06-19T08:40:05-0700 1571 47.4109 -122.308 7.0 179 5 130.025 .N317AS
2019-06-19T08:39:00-0700 2019-06-19T08:40:54-0700 2337 47.3742 -122.3083 4.7 180 4 130.025 .N317AS
2019-06-19T08:37:00-0700 2019-06-19T08:40:40-0700 200 47.269 -122.184 11.0 181 8 130.025 .N585NW
2019-06-19T08:39:00-0700 2019-06-19T08:40:54-0700 2208 47.3804 -122.3082 5.0 182 5 130.025 .N317AS
2019-06-19T08:39:00-0700 2019-06-19T08:40:54-0700 2515 47.3678 -122.3085 4.5 188 5 130.025 .N317AS
2019-06-19T10:15:00-0700 2019-06-19T10:17:04-0700 1842 47.4022 -122.3083 6.2 191 6 130.025 .N549AS
2019-06-19T10:21:00-0700 2019-06-19T10:23:50-0700 2367 47.3785 -122.309 5.0 203 7 130.025 .N548AS
2019-06-19T10:20:00-0700 2019-06-19T10:22:19-0700 1339 47.4223 -122.308 7.7 205 5 130.025 .N548AS
2019-06-19T10:15:00-0700 2019-06-19T10:17:04-0700 1726 47.4073 -122.3082 6.5 210 6 130.025 .N549AS
2019-06-19T10:15:00-0700 2019-06-19T10:17:04-0700 1593 47.4125 -122.3082 6.7 214 5 130.025 .N549AS
2019-06-19T10:21:00-0700 2019-06-19T10:23:50-0700 2974 47.3567 -122.3089 3.7 235 13 130.025 .N548AS
2019-06-19T08:42:00-0700 2019-06-19T08:43:40-0700 7173 47.3548 -122.5382 -2.0 253 5 130.025 .N317AS
2019-06-19T08:40:00-0700 2019-06-19T08:40:40-0700 6200 47.19 -122.13 0.0 260 17 130.025 .N585NW
2019-06-19T08:31:00-0700 2019-06-19T08:38:13-0700 5738 47.626 -122.4556 1.5 260 10 130.025 .N323AS
2019-06-19T08:33:00-0700 2019-06-19T08:38:13-0700 5738 47.7409 -122.4555 0.7 261 11 130.025 .N323AS
2019-06-19T08:32:00-0700 2019-06-19T08:38:13-0700 5735 47.6835 -122.4556 1.2 270 8 130.025 .N323AS
2019-06-19T08:42:00-0700 2019-06-19T08:43:40-0700 6453 47.3378 -122.5114 -1.0 272 3 130.025 .N317AS
2019-06-19T10:07:00-0700 2019-06-19T10:12:56-0700 6200 47.76 -122.479 0.0 277 3 130.025 .N820DN
2019-06-19T08:43:00-0700 2019-06-19T08:43:40-0700 8157 47.373 -122.5636 -2.2 284 14 130.025 .N317AS
2019-06-19T09:31:00-0700 2019-06-19T09:31:29-0700 35900 47.323 -122.084 -44.0 289 104 131.55 .C-FYIY
2019-06-19T10:19:00-0700 2019-06-19T10:24:55-0700 13068 47.0673 -122.5054 -8.7 291 42 130.025 .N551AS
2019-06-19T10:18:00-0700 2019-06-19T10:24:55-0700 14525 46.9914 -122.5391 -11.5 293 42 130.025 .N551AS
2019-06-19T10:06:00-0700 2019-06-19T10:06:56-0700 7200 47.736 -122.559 -2.0 293 8 130.025 .N820DN
2019-06-19T10:23:00-0700 2019-06-19T10:25:33-0700 6169 47.2568 -122.3095 -0.7 293 9 130.025 .N548AS
2019-06-19T09:53:00-0700 2019-06-19T09:54:52-0700 6845 47.3078 -122.4239 -1.7 296 8 130.025 .N612AS
2019-06-19T10:16:00-0700 2019-06-19T10:24:49-0700 16272 46.8419 -122.6711 -15.0 296 47 130.025 .N551AS
2019-06-19T08:44:00-0700 2019-06-19T08:45:10-0700 10710 47.4521 -122.6666 -5.7 296 30 130.025 .N317AS
2019-06-19T08:32:00-0700 2019-06-19T08:32:44-0700 25135 47.6794 -122.9213 -34.5 296 77 130.025 .N625AS
2019-06-19T10:17:00-0700 2019-06-19T10:26:03-0700 6661 47.4341 -122.4555 -1.5 297 2 130.025 .N524AS
2019-06-19T08:44:00-0700 2019-06-19T08:45:10-0700 10833 47.4743 -122.6965 -6.2 298 29 130.025 .N317AS
2019-06-19T08:44:00-0700 2019-06-19T08:45:10-0700 10652 47.4317 -122.6391 -5.7 298 30 130.025 .N317AS
2019-06-19T08:32:00-0700 2019-06-19T08:32:44-0700 25962 47.7053 -122.9461 -36.2 298 78 130.025 .N625AS
2019-06-19T08:31:00-0700 2019-06-19T08:32:44-0700 24219 47.654 -122.897 -32.2 298 81 130.025 .N625AS
2019-06-19T09:53:00-0700 2019-06-19T09:54:52-0700 7340 47.3069 -122.4601 -1.7 299 10 130.025 .N612AS
2019-06-19T10:24:00-0700 2019-06-19T10:25:39-0700 8501 47.1857 -122.2642 -3.7 301 18 130.025 .N548AS
2019-06-19T08:39:00-0700 2019-06-19T08:40:40-0700 4700 47.191 -122.17 3.0 301 6 130.025 .N585NW
2019-06-19T09:54:00-0700 2019-06-19T09:55:13-0700 10400 47.3109 -122.5718 -5.2 302 27 130.025 .N612AS
2019-06-19T10:16:00-0700 2019-06-19T10:26:03-0700 7702 47.3766 -122.4553 -2.0 302 9 130.025 .N524AS
2019-06-19T10:25:00-0700 2019-06-19T10:25:39-0700 9687 47.1368 -122.2186 -4.5 303 26 130.025 .N548AS
2019-06-19T10:20:00-0700 2019-06-19T10:24:55-0700 11614 47.1425 -122.4889 -7.2 303 31 130.025 .N551AS
2019-06-19T10:20:00-0700 2019-06-19T10:22:19-0700 1187 47.4269 -122.308 8.2 303 1 130.025 .N548AS
2019-06-19T10:16:00-0700 2019-06-19T10:17:12-0700 7755 47.3739 -122.4553 -2.2 303 10 130.025 .N524AS
2019-06-19T10:15:00-0700 2019-06-19T10:24:49-0700 18032 46.7614 -122.7377 -17.7 303 55 130.025 .N551AS
2019-06-19T09:54:00-0700 2019-06-19T09:55:13-0700 11096 47.3121 -122.6122 -6.2 303 30 130.025 .N612AS
2019-06-19T10:10:00-0700 2019-06-19T10:12:56-0700 5000 47.764 -122.303 2.0 304 4 130.025 .N820DN
2019-06-19T09:54:00-0700 2019-06-19T09:56:34-0700 11186 47.3122 -122.6184 -6.5 305 31 130.025 .N612AS
2019-06-19T10:14:00-0700 2019-06-19T10:17:12-0700 9949 47.2573 -122.4704 -4.7 306 26 130.025 .N524AS
2019-06-19T09:55:00-0700 2019-06-19T09:56:34-0700 11710 47.3133 -122.6613 -7.0 307 32 130.025 .N612AS
2019-06-19T10:24:00-0700 2019-06-19T10:25:39-0700 9191 47.1619 -122.2419 -3.7 307 25 130.025 .N548AS
2019-06-19T10:08:00-0700 2019-06-19T10:12:56-0700 5900 47.783 -122.4 1.0 312 13 130.025 .N820DN
2019-06-19T09:54:00-0700 2019-06-19T09:55:13-0700 9574 47.3095 -122.5342 -3.5 313 24 130.025 .N612AS
2019-06-19T10:09:00-0700 2019-06-19T10:12:56-0700 5600 47.802 -122.325 1.0 316 16 130.025 .N820DN
2019-06-19T10:15:00-0700 2019-06-19T10:17:12-0700 8907 47.3176 -122.4609 -3.2 317 20 130.025 .N524AS
2019-06-19T10:23:00-0700 2019-06-19T10:25:33-0700 7086 47.2312 -122.3047 -2.7 328 7 130.025 .N548AS